Regional Weather Roundup
Issued by NWS

Home | Current Version | Previous Version | Graphics & Text | Print | Product List | Glossary On
Versions: 1 2 3 4 5 6 7 8 9 10 11 12 13 14 15 16 17 18 19 20 21 22 23 24 25 26 27 28
000
ASUS45 KCYS 152210
RWRWY

WYOMING REGIONAL WEATHER ROUNDUP
NATIONAL WEATHER SERVICE CHEYENNE WY
400 PM MDT TUE APR 15 2014

NOTE:  "FAIR" INDICATES FEW OR NO CLOUDS BELOW 12,000 FEET
WITH NO SIGNIFICANT WEATHER AND/OR OBSTRUCTIONS TO VISIBILITY.

WYZ001-152300-
YELLOWSTONE NATIONAL PARK

CITY           SKY/WX    TMP DP  RH WIND       PRES   REMARKS
LK YELLOWSTONE   N/A     34  23  64 VRB3      29.74F
W YELLOWSTONE  NOT AVBL

$$
WYZ002>013-054>058-071-098>099-152300-
NORTHERN WYOMING

CITY           SKY/WX    TMP DP  RH WIND       PRES   REMARKS
JACKSON        CLOUDY    45  21  39 MISG      29.74F
CODY           CLOUDY    54  27  35 S9        29.64F
GREYBULL       CLOUDY    52  29  41 CALM      29.61F
WORLAND        CLOUDY    56  28  34 NE9       29.60F
SHERIDAN       CLOUDY    54  32  43 N5        29.61F
BUFFALO        CLOUDY    51  25  36 N10       29.64F
GILLETTE       CLOUDY    59  19  21 W6G21     29.59F
HULETT         CLOUDY    57  25  28 W8G21     29.60
NEWCASTLE      FAIR      61  18  18 W12G18    29.61

$$
WYZ014>020-022>026-101>103-152300-
CENTRAL WYOMING

CITY           SKY/WX    TMP DP  RH WIND       PRES   REMARKS
BIG PINEY      PTSUNNY   52  17  25 W31G47    29.83R
PINEDALE       MOCLDY    48  25  40 W24G32    29.81R
DUBOIS         CLOUDY    43  19  39 W26G36    29.73F
LANDER         PTSUNNY   58  22  24 W15G30    29.67S
RIVERTON       CLOUDY    58  12  16 W25G31    29.65F
CASPER         CLOUDY    56  18  22 W20G29    29.66F
DOUGLAS        PTSUNNY   58  27  30 W18G26    29.66F

$$
WYZ021-027>030-104>119-152300-
SOUTHERN WYOMING

CITY           SKY/WX    TMP DP  RH WIND       PRES   REMARKS
EVANSTON       PTSUNNY   55  12  18 W31G41    29.87F
KEMMERER       MOCLDY    48  14  25 W29G41    29.84F
FORT BRIDGER   FAIR      59  12  15 W32G48    29.86F
ROCK SPRINGS   CLOUDY    58   8  13 W32G43    29.78
DIXON          FAIR      57  17  21 SW25G35   29.85F
RAWLINS        MOSUNNY   56  13  18 SW28G39   29.77F
SARATOGA       MOCLDY    54  16  22 SW14G28   29.82F
LARAMIE        MOSUNNY   49  15  25 SW23G32   29.78F
CHEYENNE       MOSUNNY   52  17  25 W26G33    29.76F
TORRINGTON     SUNNY     62  23  22 W18G28    29.67F
PINE BLUFFS    FAIR      59  19  21 W25G32    29.74F

$$



USA.gov is the U.S. government's official web portal to all federal, state and local government web resources and services.